Flag for Mexico

Past Weather in Reynosa, Tamaulipas, Mexico — Yesterday and Last 2 Weeks

Now
96 °F

Sunny.


Feels Like: 106 °F
Forecast: 98 / 80 °F
Wind: 17 mph from Southeast

Location: Miller International Airport

Current Time: Jul 10, 2020 at 12:21:03 pm

Latest Report: Jul 10, 2020 at 11:53 am


Visibility: 10 mi

Pressure: 29.95 "Hg

Humidity: 47%

Dew Point: 73 °F

Location of ReynosaLocation

Past Weather in Reynosa — Graph

°F

Reynosa Temperature Yesterday

Maximum temperature yesterday: 99 °F (at 1:53 pm)
Minimum temperature yesterday: 81 °F (at 4:53 am)
Average temperature yesterday: 88 °F

High & Low Weather Summary for the Past Weeks

 TemperatureHumidityPressure
High101 °F (Jul 5, 3:53 pm)94% (Jun 26, 4:19 am)30.01 "Hg (Jun 26, 4:19 am)
Low74 °F (Jun 26, 4:19 am)32% (Jul 5, 3:53 pm)29.75 "Hg (Jun 28, 5:53 pm)
Average85 °F72%29.88 "Hg
* Reported Jun 25 10:53 am — Jul 10 10:53 am, Reynosa. Weather by CustomWeather, © 2020

Note: Actual official high and low records may vary slightly from our data, if they occured in-between our weather recording intervals... More about our weather records

Reynosa Weather History for the Previous 24 Hours

Scroll right to see more
 ConditionsComfort  
Time TempWeatherWind HumidityBarometerVisibility
10:53 am
Fri, Jul 10
93 °FSunny.18 mph54%29.95 "Hg10 mi
9:53 am89 °FSunny.20 mph63%29.94 "Hg10 mi
8:53 am86 °FScattered clouds.15 mph75%29.94 "Hg10 mi
7:53 am83 °FPassing clouds.14 mph85%29.93 "Hg9 mi
6:53 am82 °FPassing clouds.15 mph85%29.92 "Hg9 mi
5:53 am82 °FClear.15 mph85%29.92 "Hg10 mi
4:53 am82 °FPassing clouds.15 mph85%29.91 "Hg10 mi
4:16 am82 °FPassing clouds.14 mph85%29.91 "Hg10 mi
3:53 am82 °FPartly cloudy.13 mph85%29.91 "Hg10 mi
2:53 am82 °FClear.13 mph85%29.90 "Hg10 mi
1:53 am83 °FPassing clouds.13 mph79%29.90 "Hg10 mi
12:53 am83 °FClear.14 mph79%29.91 "Hg10 mi
11:53 pm
Thu, Jul 9
84 °FClear.17 mph77%29.90 "Hg10 mi
10:53 pm84 °FPassing clouds.18 mph77%29.88 "Hg10 mi
9:53 pm85 °FClear.18 mph72%29.85 "Hg10 mi
8:53 pm87 °FClear.20 mph61%29.83 "Hg10 mi
7:53 pm90 °FSunny.18 mph52%29.82 "Hg10 mi
6:53 pm93 °FSunny.25 mph49%29.80 "Hg10 mi
5:53 pm95 °FSunny.21 mph51%29.80 "Hg10 mi
4:53 pm97 °FSunny.21 mph48%29.80 "Hg10 mi
3:53 pm98 °FSunny.21 mph46%29.81 "Hg10 mi
2:53 pm99 °FPassing clouds.20 mph43%29.81 "Hg10 mi
1:53 pm99 °FSunny.22 mph41%29.83 "Hg10 mi
12:53 pm97 °FPassing clouds.16 mph45%29.85 "Hg10 mi
Weather by CustomWeather, © 2020

See weather overview